Weather History for PAOM - December, 2013

Change the Weather History Date:

Monday, December 23, 2013

  Actual Average Record
Temperature  
Mean Temperature 2 °F -  
Max Temperature 9 °F 16 °F 37 °F (1985)
Min Temperature -5 °F - -32 °F (1994)
Degree Days  
Heating Degree Days 63 57  
Month to date heating degree days 1076 1259  
Since 1 July heating degree days 4878 5357  
Cooling Degree Days 0    
Month to date cooling degree days 0  
Year to date cooling degree days 7  
Moisture  
Dew Point 0 °F    
Average Humidity 0    
Maximum Humidity 0    
Minimum Humidity 0    
Precipitation  
Precipitation T in 0.04 in 0.52 in (1921)
Month to date precipitation 1.98 0.80  
Year to date precipitation 22.30 16.53  
Snow  
Snow T in 0.40 in 5.40 in (2010)
Month to date snowfall 18.1 10.6  
Since 1 July snowfall 32.7 27.9  
Snow Depth 16.00 in    
Sea Level Pressure  
Sea Level Pressure 30.07 in    
Wind  
Wind Speed 6 mph (NNE)    
Max Wind Speed 15 mph    
Max Gust Speed 18 mph    
Visibility 8 miles    
Events Snow    
T = Trace of Precipitation, MM = Missing Value Source: NWS Daily Summary

Daily Weather History Graph

Daily Weather History Graph

Search for Another Location

Airport or City:

Trip Planner

Search our weather history database for the weather conditions in past years. The results will help you decide how hot, cold, wet, or windy it might be!

Date:

Astronomy

Dec. 23, 2013 Rise Set
Actual Time 12:03 PM AKST 3:58 PM AKST
Civil Twilight 10:41 AM AKST 5:21 PM AKST
Nautical Twilight 9:30 AM AKST 6:31 PM AKST
Astronomical Twilight 8:30 AM AKST 7:32 PM AKST
Moon No Moon Rise 1:06 PM AKST (12/23)
Length of Visible Light 6h 39m
Length of Day
3h 54m
Waning Gibbous, 66% of the Moon is Illuminated
Dec 23
Waning Gibbous
Dec 25
Last Quarter
Jan 1
New
Jan 7
First Quarter
Jan 15
Full

Hourly Weather History & Observations

Time (AKST) Temp. Windchill Dew Point Humidity Pressure Visibility Wind Dir Wind Speed Gust Speed Precip Events Conditions
12:53 AM 9.0 °F -5.9 °F 3.9 °F 80% 29.91 in 7.0 mi WNW 11.5 mph - 0.00 in Snow Light Snow
1:53 AM 7.0 °F -9.1 °F 1.9 °F 80% 29.93 in 8.0 mi West 12.7 mph - 0.00 in   Overcast
2:53 AM 7.0 °F - 1.0 °F 77% 29.95 in 8.0 mi Calm Calm - N/A   Overcast
3:26 AM 5.0 °F -11.6 °F 1.4 °F 85% 29.95 in 8.0 mi West 12.7 mph - N/A   Scattered Clouds
3:53 AM 6.1 °F -5.6 °F 1.9 °F 83% 29.96 in 8.0 mi NW 6.9 mph - N/A   Scattered Clouds
4:53 AM 3.9 °F -3.4 °F 1.0 °F 88% 29.97 in 7.0 mi East 3.5 mph - N/A   Overcast
5:24 AM 5.0 °F - 1.4 °F 85% 29.98 in 7.0 mi Calm Calm - 0.00 in Snow Light Snow
5:53 AM 6.1 °F -4.3 °F 3.0 °F 87% 29.99 in 6.0 mi East 5.8 mph - 0.00 in Snow Light Snow
6:53 AM 5.0 °F -10.0 °F -0.0 °F 80% 30.02 in 8.0 mi East 10.4 mph - 0.00 in   Overcast
7:53 AM 7.0 °F -4.5 °F -0.0 °F 73% 30.03 in 8.0 mi ENE 6.9 mph - 0.00 in Snow Light Snow
8:53 AM 7.0 °F -4.5 °F -0.0 °F 73% 30.04 in 9.0 mi East 6.9 mph - 0.00 in   Overcast
9:53 AM 8.1 °F -0.5 °F 1.0 °F 73% 30.06 in 9.0 mi NE 4.6 mph - N/A   Overcast
10:53 AM 8.1 °F -2.0 °F 1.0 °F 73% 30.08 in 9.0 mi ENE 5.8 mph - N/A   Overcast
11:53 AM 7.0 °F -4.5 °F -0.0 °F 73% 30.10 in 8.0 mi East 6.9 mph - N/A   Overcast
12:53 PM 7.0 °F 0.1 °F 1.0 °F 77% 30.12 in 8.0 mi North 3.5 mph - N/A   Overcast
1:53 PM 7.0 °F 0.1 °F 1.0 °F 77% 30.13 in 8.0 mi North 3.5 mph - N/A   Overcast
2:53 PM 8.1 °F - 1.9 °F 76% 30.14 in 6.0 mi Calm Calm - N/A   Haze
3:53 PM 7.0 °F 0.1 °F 1.0 °F 77% 30.15 in 7.0 mi NNE 3.5 mph - N/A   Overcast
4:53 PM 6.1 °F -7.8 °F -0.0 °F 76% 30.15 in 9.0 mi NE 9.2 mph - N/A   Overcast
5:53 PM 5.0 °F -9.1 °F -0.9 °F 76% 30.15 in 9.0 mi NNE 9.2 mph - N/A   Overcast
6:53 PM 5.0 °F -6.9 °F -2.0 °F 73% 30.17 in 9.0 mi NE 6.9 mph - N/A   Overcast
7:53 PM 1.9 °F -9.2 °F -2.9 °F 80% 30.17 in 9.0 mi NNE 5.8 mph - N/A   Partly Cloudy
8:53 PM -2.0 °F -12.2 °F -6.0 °F 83% 30.18 in 9.0 mi NNE 4.6 mph - N/A   Clear
9:53 PM -2.0 °F -13.9 °F -7.1 °F 79% 30.18 in 9.0 mi NNE 5.8 mph - N/A   Clear
10:53 PM -2.9 °F -13.3 °F -7.1 °F 82% 30.18 in 9.0 mi NNE 4.6 mph - N/A   Clear
11:53 PM -2.9 °F -11.2 °F -8.0 °F 79% 30.20 in 9.0 mi North 3.5 mph - N/A   Clear